Location: Observatoire
(46.1952°N, 5.3391°E)
Time: 22:06:52
(UTC+01:00)

A-11 Canister half - Pass Details

Date: 25 February 2026
Orbit: 1525 x 1683 km, 47.3° (Epoch: 9 March)

Event Time Altitude Azimuth Distance (km) Brightness Sun altitude
Rises 17:34:29 0° 266° (W) 4,730 13.3 6.6°
Reaches altitude 10° 17:37:34 10° 268° (W) 3,730 12.8 6.1°
Maximum altitude 17:47:00 84° 357° (N) 1,539 9.2 4.5°
Drops below altitude 10° 17:56:20 10° 87° (E) 3,693 10.4 3.0°
Sets 17:59:23 0° 88° (E) 4,681 10.9 2.5°
